Location: Unspecified
(49.2170°N, 0.0000°E)
Time: 18:51:14
(UTC+00:00)

Transit 4A - Pass Details

Date: 19 June 2019
Orbit: 862 x 982 km, 66.8° (Epoch: 18 July)

Event Time Altitude Azimuth Distance (km) Brightness Sun altitude
Rises 17:30:52 0° 323° (NW) 3,696 11.7 22.4°
Reaches altitude 10° 17:33:28 10° 321° (NW) 2,740 11.3 22.0°
Maximum altitude 17:39:51 71° 239° (WSW) 1,024 8.8 20.9°
Drops below altitude 10° 17:46:04 10° 157° (SSE) 2,668 10.0 19.9°
Sets 17:48:34 0° 155° (SSE) 3,593 10.6 19.5°
